| time (UTC) | temp F | wind direction | speed MPH | gust MPH | rain 1hr in | rain 24hr in | rain mn in | humidity % | barometer mb |
| 20260503040017 | 57 | 317 | 0.0 | 1.0 | 0.00 | 0.03 | 0.00 | 90 | 1013.4 |
| 20260503035503 | 57 | 317 | 0.0 | 1.0 | 0.00 | 0.03 | 0.00 | 90 | 1013.4 |
| 20260503035003 | 57 | 317 | 0.0 | 1.0 | 0.00 | 0.03 | 0.00 | 90 | 1013.5 |
| 20260503034517 | 58 | 317 | 0.0 | 2.0 | 0.00 | 0.03 | 0.00 | 90 | 1013.4 |
| 20260503034003 | 58 | 317 | 1.0 | 2.0 | 0.00 | 0.03 | 0.00 | 90 | 1013.4 |
| 20260503033503 | 57 | 317 | 1.0 | 2.0 | 0.00 | 0.03 | 0.00 | 89 | 1013.4 |
| 20260503033003 | 58 | 317 | 0.0 | 2.0 | 0.00 | 0.03 | 0.00 | 89 | 1013.3 |
| 20260503032503 | 58 | 317 | 0.0 | 2.0 | 0.00 | 0.03 | 0.00 | 89 | 1013.2 |
| 20260503032003 | 58 | 317 | 0.0 | 2.0 | 0.00 | 0.03 | 0.00 | 89 | 1013.3 |
| 20260503031503 | 58 | 317 | 0.0 | 2.0 | 0.00 | 0.03 | 0.00 | 89 | 1013.4 |
| 20260503031017 | 58 | 317 | 1.0 | 2.0 | 0.00 | 0.03 | 0.00 | 89 | 1013.3 |
| 20260503030503 | 58 | 317 | 1.0 | 4.0 | 0.00 | 0.03 | 0.00 | 88 | 1013.4 |
| 20260503030017 | 58 | 329 | 2.0 | 6.0 | 0.00 | 0.03 | 0.00 | 88 | 1013.4 |
| 20260503025503 | 59 | 331 | 3.0 | 6.0 | 0.00 | 0.03 | 0.00 | 89 | 1013.5 |
| 20260503025003 | 59 | 328 | 4.0 | 8.0 | 0.00 | 0.03 | 0.00 | 89 | 1013.5 |
| 20260503024503 | 59 | 326 | 4.0 | 8.0 | 0.00 | 0.03 | 0.00 | 89 | 1013.5 |
| 20260503024003 | 59 | 321 | 3.0 | 7.0 | 0.00 | 0.03 | 0.00 | 88 | 1013.5 |
| 20260503023503 | 59 | 321 | 1.0 | 5.0 | 0.00 | 0.03 | 0.00 | 87 | 1013.6 |
| 20260503023003 | 58 | 50 | 0.0 | 2.0 | 0.00 | 0.03 | 0.00 | 86 | 1013.6 |
| 20260503022503 | 58 | 50 | 0.0 | 1.0 | 0.00 | 0.03 | 0.00 | 86 | 1013.6 |
| 20260503022003 | 58 | 52 | 0.0 | 1.0 | 0.00 | 0.03 | 0.00 | 85 | 1013.6 |
| 20260503021503 | 58 | 57 | 0.0 | 2.0 | 0.00 | 0.03 | 0.00 | 85 | 1013.8 |
| 20260503021003 | 58 | 58 | 1.0 | 2.0 | 0.00 | 0.03 | 0.00 | 84 | 1013.8 |
| 20260503020503 | 59 | 58 | 1.0 | 2.0 | 0.00 | 0.03 | 0.00 | 84 | 1013.8 |
| 20260503020003 | 59 | 58 | 0.0 | 2.0 | 0.00 | 0.03 | 0.00 | 84 | 1013.8 |
| 20260503015503 | 59 | 58 | 0.0 | 2.0 | 0.00 | 0.03 | 0.00 | 84 | 1013.7 |
| 20260503015003 | 59 | 58 | 1.0 | 2.0 | 0.00 | 0.03 | 0.00 | 84 | 1013.8 |
| 20260503014503 | 59 | 58 | 0.0 | 2.0 | 0.00 | 0.03 | 0.00 | 84 | 1013.8 |
| 20260503014003 | 59 | 58 | 0.0 | 2.0 | 0.00 | 0.03 | 0.00 | 84 | 1013.8 |
| 20260503013503 | 60 | 58 | 0.0 | 1.0 | 0.00 | 0.03 | 0.00 | 84 | 1013.8 |
| 20260503013017 | 60 | 44 | 0.0 | 3.0 | 0.00 | 0.03 | 0.00 | 84 | 1013.8 |
| 20260503012503 | 60 | 338 | 1.0 | 4.0 | 0.00 | 0.03 | 0.00 | 83 | 1013.9 |
| 20260503012003 | 60 | 339 | 2.0 | 4.0 | 0.00 | 0.03 | 0.00 | 83 | 1013.8 |
| 20260503011503 | 60 | 353 | 2.0 | 5.0 | 0.00 | 0.03 | 0.00 | 84 | 1014.0 |
| 20260503011004 | 60 | 351 | 2.0 | 5.0 | 0.00 | 0.03 | 0.00 | 85 | 1014.0 |
| 20260503010503 | 60 | 358 | 1.0 | 3.0 | 0.00 | 0.03 | 0.00 | 85 | 1014.1 |
| 20260503010003 | 60 | 359 | 0.0 | 3.0 | 0.00 | 0.03 | 0.00 | 85 | 1014.1 |
| 20260503005503 | 60 | 356 | 0.0 | 1.0 | 0.00 | 0.03 | 0.00 | 85 | 1014.1 |
| 20260503005017 | 60 | 355 | 0.0 | 3.0 | 0.00 | 0.03 | 0.00 | 85 | 1014.1 |
| 20260503004503 | 60 | 350 | 1.0 | 4.0 | 0.00 | 0.03 | 0.00 | 85 | 1014.1 |
| 20260503004003 | 60 | 332 | 2.0 | 8.0 | 0.00 | 0.03 | 0.00 | 85 | 1014.2 |
| 20260503003503 | 60 | 329 | 3.0 | 8.0 | 0.00 | 0.03 | 0.00 | 86 | 1014.2 |
| 20260503003003 | 60 | 332 | 5.0 | 12.0 | 0.00 | 0.03 | 0.00 | 87 | 1014.1 |
| 20260503002503 | 60 | 329 | 6.0 | 12.0 | 0.00 | 0.03 | 0.00 | 88 | 1014.3 |
| 20260503002003 | 60 | 323 | 7.0 | 12.0 | 0.00 | 0.03 | 0.00 | 88 | 1014.4 |
| 20260503001503 | 60 | 318 | 7.0 | 11.0 | 0.00 | 0.03 | 0.00 | 87 | 1014.5 |
| 20260503001003 | 60 | 318 | 7.0 | 11.0 | 0.00 | 0.03 | 0.00 | 87 | 1014.4 |
| 20260503000503 | 61 | 323 | 8.0 | 12.0 | 0.00 | 0.03 | 0.00 | 86 | 1014.5 |
| 20260503000017 | 61 | 326 | 8.0 | 12.0 | 0.00 | 0.03 | 0.00 | 85 | 1014.5 |
| 20260502235503 | 61 | 324 | 7.0 | 12.0 | 0.00 | 0.03 | 0.00 | 84 | 1014.4 |
| 20260502235003 | 62 | 322 | 6.0 | 12.0 | 0.00 | 0.03 | 0.00 | 82 | 1014.5 |
| 20260502234503 | 62 | 325 | 5.0 | 10.0 | 0.00 | 0.03 | 0.00 | 80 | 1014.4 |
| 20260502234003 | 63 | 325 | 3.0 | 11.0 | 0.00 | 0.03 | 0.00 | 77 | 1014.5 |
| 20260502233517 | 63 | 317 | 1.0 | 11.0 | 0.00 | 0.03 | 0.00 | 74 | 1014.5 |
| 20260502233003 | 63 | 282 | 1.0 | 4.0 | 0.00 | 0.03 | 0.00 | 72 | 1014.5 |
| 20260502232503 | 63 | 292 | 2.0 | 6.0 | 0.00 | 0.03 | 0.00 | 72 | 1014.6 |
| 20260502232003 | 63 | 289 | 2.0 | 6.0 | 0.00 | 0.03 | 0.00 | 72 | 1014.5 |
| 20260502231503 | 63 | 220 | 3.0 | 7.0 | 0.00 | 0.03 | 0.00 | 73 | 1014.4 |
| 20260502231003 | 63 | 173 | 3.0 | 8.0 | 0.00 | 0.03 | 0.00 | 73 | 1014.5 |
| 20260502230503 | 63 | 172 | 4.0 | 8.0 | 0.00 | 0.03 | 0.00 | 73 | 1014.4 |
| 20260502230003 | 63 | 177 | 5.0 | 14.0 | 0.00 | 0.03 | 0.00 | 73 | 1014.3 |
| 20260502225503 | 63 | 174 | 5.0 | 14.0 | 0.00 | 0.03 | 0.00 | 73 | 1014.2 |
| 20260502225017 | 62 | 179 | 4.0 | 10.0 | 0.00 | 0.03 | 0.00 | 74 | 1014.2 |
| 20260502224503 | 62 | 188 | 4.0 | 8.0 | 0.00 | 0.03 | 0.00 | 75 | 1014.1 |
| 20260502224003 | 62 | 188 | 4.0 | 9.0 | 0.00 | 0.03 | 0.00 | 75 | 1014.0 |
| 20260502223503 | 62 | 170 | 5.0 | 9.0 | 0.00 | 0.03 | 0.00 | 76 | 1014.1 |
| 20260502223003 | 62 | 175 | 4.0 | 9.0 | 0.00 | 0.03 | 0.00 | 75 | 1014.1 |
| 20260502222503 | 62 | 181 | 4.0 | 8.0 | 0.00 | 0.03 | 0.00 | 75 | 1014.0 |
| 20260502222017 | 62 | 192 | 4.0 | 8.0 | 0.00 | 0.03 | 0.00 | 75 | 1014.1 |
| 20260502221503 | 62 | 199 | 4.0 | 9.0 | 0.00 | 0.03 | 0.00 | 75 | 1014.1 |
| 20260502221003 | 62 | 200 | 3.0 | 9.0 | 0.00 | 0.03 | 0.00 | 75 | 1014.0 |
| 20260502220503 | 62 | 214 | 3.0 | 9.0 | 0.00 | 0.03 | 0.00 | 75 | 1014.0 |
| 20260502220003 | 62 | 204 | 4.0 | 9.0 | 0.00 | 0.03 | 0.00 | 75 | 1014.1 |
| 20260502215503 | 62 | 198 | 4.0 | 9.0 | 0.00 | 0.03 | 0.03 | 76 | 1014.1 |
| 20260502215003 | 62 | 193 | 3.0 | 8.0 | 0.00 | 0.03 | 0.03 | 76 | 1014.0 |
| 20260502214503 | 62 | 182 | 3.0 | 8.0 | 0.00 | 0.03 | 0.03 | 77 | 1014.0 |
| 20260502214003 | 62 | 181 | 3.0 | 8.0 | 0.00 | 0.03 | 0.03 | 77 | 1013.9 |
| 20260502213503 | 62 | 191 | 3.0 | 8.0 | 0.00 | 0.03 | 0.03 | 76 | 1014.0 |
| 20260502213003 | 62 | 207 | 3.0 | 8.0 | 0.00 | 0.03 | 0.03 | 76 | 1014.1 |
| 20260502212503 | 62 | 209 | 3.0 | 7.0 | 0.00 | 0.03 | 0.03 | 77 | 1014.1 |
| 20260502212017 | 62 | 222 | 4.0 | 9.0 | 0.00 | 0.03 | 0.03 | 77 | 1014.1 |
| 20260502211503 | 61 | 219 | 3.0 | 9.0 | 0.00 | 0.03 | 0.03 | 78 | 1014.1 |
| 20260502211003 | 61 | 204 | 3.0 | 7.0 | 0.01 | 0.03 | 0.03 | 79 | 1014.2 |
| 20260502210503 | 61 | 191 | 3.0 | 8.0 | 0.01 | 0.03 | 0.03 | 79 | 1014.1 |
| 20260502210003 | 61 | 178 | 3.0 | 8.0 | 0.01 | 0.03 | 0.03 | 80 | 1014.2 |
| 20260502205517 | 61 | 175 | 3.0 | 10.0 | 0.01 | 0.03 | 0.03 | 79 | 1014.2 |
| 20260502205017 | 61 | 192 | 3.0 | 10.0 | 0.01 | 0.03 | 0.03 | 78 | 1014.1 |
| 20260502204503 | 61 | 267 | 2.0 | 7.0 | 0.01 | 0.03 | 0.03 | 78 | 1014.2 |
| 20260502204003 | 61 | 230 | 3.0 | 7.0 | 0.01 | 0.03 | 0.03 | 79 | 1014.1 |
| 20260502203503 | 61 | 197 | 3.0 | 9.0 | 0.01 | 0.03 | 0.03 | 79 | 1014.0 |
| 20260502203003 | 61 | 222 | 3.0 | 9.0 | 0.01 | 0.03 | 0.03 | 79 | 1014.1 |
| 20260502202503 | 61 | 243 | 2.0 | 7.0 | 0.01 | 0.03 | 0.03 | 80 | 1014.0 |
| 20260502202003 | 61 | 227 | 2.0 | 4.0 | 0.01 | 0.03 | 0.03 | 80 | 1014.1 |
| 20260502201503 | 61 | 253 | 2.0 | 7.0 | 0.01 | 0.03 | 0.03 | 79 | 1014.1 |
| 20260502201017 | 61 | 305 | 2.0 | 7.0 | 0.00 | 0.02 | 0.02 | 79 | 1014.0 |
| 20260502200503 | 62 | 294 | 2.0 | 7.0 | 0.00 | 0.02 | 0.02 | 79 | 1013.9 |
| 20260502200003 | 62 | 312 | 3.0 | 7.0 | 0.00 | 0.02 | 0.02 | 78 | 1013.8 |
| 20260502195503 | 62 | 312 | 3.0 | 7.0 | 0.00 | 0.02 | 0.02 | 78 | 1013.7 |
| 20260502195003 | 62 | 285 | 2.0 | 7.0 | 0.00 | 0.02 | 0.02 | 78 | 1013.7 |
| 20260502194503 | 62 | 252 | 2.0 | 7.0 | 0.00 | 0.02 | 0.02 | 78 | 1013.9 |
| 20260502194003 | 62 | 241 | 3.0 | 7.0 | 0.00 | 0.02 | 0.02 | 78 | 1014.1 |
| 20260502193503 | 62 | 228 | 3.0 | 7.0 | 0.00 | 0.02 | 0.02 | 79 | 1014.0 |
| 20260502193003 | 62 | 265 | 3.0 | 9.0 | 0.00 | 0.02 | 0.02 | 80 | 1014.2 |
| 20260502192503 | 62 | 292 | 3.0 | 9.0 | 0.00 | 0.02 | 0.02 | 80 | 1014.3 |
| 20260502192003 | 62 | 304 | 3.0 | 7.0 | 0.00 | 0.02 | 0.02 | 80 | 1014.3 |
| 20260502191503 | 62 | 312 | 4.0 | 7.0 | 0.00 | 0.02 | 0.02 | 81 | 1014.2 |
| 20260502191017 | 62 | 314 | 3.0 | 7.0 | 0.00 | 0.02 | 0.02 | 81 | 1014.4 |
| 20260502190503 | 62 | 322 | 1.0 | 5.0 | 0.00 | 0.02 | 0.02 | 81 | 1014.3 |
| 20260502190004 | 63 | 330 | 1.0 | 4.0 | 0.00 | 0.02 | 0.02 | 81 | 1014.3 |
| 20260502185503 | 63 | 330 | 2.0 | 5.0 | 0.00 | 0.02 | 0.02 | 79 | 1014.3 |
| 20260502185003 | 63 | 328 | 2.0 | 7.0 | 0.00 | 0.02 | 0.02 | 78 | 1014.4 |
| 20260502184503 | 63 | 320 | 2.0 | 7.0 | 0.00 | 0.02 | 0.02 | 78 | 1014.4 |
| 20260502184003 | 63 | 315 | 3.0 | 8.0 | 0.00 | 0.02 | 0.02 | 77 | 1014.4 |
| 20260502183503 | 63 | 260 | 2.0 | 8.0 | 0.00 | 0.02 | 0.02 | 77 | 1014.4 |
| 20260502183003 | 63 | 189 | 2.0 | 7.0 | 0.00 | 0.02 | 0.02 | 77 | 1014.3 |
| 20260502182503 | 63 | 227 | 3.0 | 10.0 | 0.00 | 0.02 | 0.02 | 77 | 1014.3 |
| 20260502182003 | 63 | 241 | 3.0 | 10.0 | 0.00 | 0.02 | 0.02 | 77 | 1014.3 |
| 20260502181503 | 63 | 256 | 3.0 | 8.0 | 0.00 | 0.02 | 0.02 | 78 | 1014.3 |
| 20260502181003 | 63 | 268 | 2.0 | 6.0 | 0.00 | 0.02 | 0.02 | 79 | 1014.3 |
| 20260502180503 | 63 | 261 | 2.0 | 6.0 | 0.00 | 0.02 | 0.02 | 81 | 1014.3 |
| 20260502170503 | 64 | 290 | 0.0 | 1.0 | 0.02 | 0.02 | 0.02 | 83 | 1014.2 |
| 20260502164003 | 63 | 254 | 1.0 | 6.0 | 0.02 | 0.02 | 0.02 | 81 | 1014.6 |
| 20260502163503 | 63 | 239 | 2.0 | 6.0 | 0.02 | 0.02 | 0.02 | 81 | 1014.6 |
| 20260502163003 | 63 | 229 | 3.0 | 6.0 | 0.02 | 0.02 | 0.02 | 81 | 1014.9 |
| 20260502162503 | 63 | 202 | 3.0 | 6.0 | 0.02 | 0.02 | 0.02 | 81 | 1014.6 |
| 20260502162003 | 64 | 188 | 4.0 | 8.0 | 0.02 | 0.02 | 0.02 | 80 | 1014.9 |
| 20260502161503 | 64 | 208 | 3.0 | 8.0 | 0.02 | 0.02 | 0.02 | 78 | 1014.7 |
| 20260502161003 | 65 | 286 | 2.0 | 4.0 | 0.02 | 0.02 | 0.02 | 77 | 1014.8 |
| 20260502160503 | 65 | 316 | 4.0 | 10.0 | 0.01 | 0.01 | 0.01 | 75 | 1014.9 |
| 20260502152003 | 66 | 186 | 1.0 | 2.0 | 0.00 | 0.00 | 0.00 | 78 | 1015.1 |
| 20260502151503 | 66 | 186 | 1.0 | 2.0 | 0.00 | 0.00 | 0.00 | 77 | 1015.1 |
| 20260502151017 | 66 | 186 | 1.0 | 2.0 | 0.00 | 0.00 | 0.00 | 76 | 1015.1 |
| 20260502150517 | 66 | 186 | 0.0 | 2.0 | 0.00 | 0.00 | 0.00 | 76 | 1015.2 |
| 20260502130503 | 63 | 163 | 4.0 | 11.0 | 0.00 | 0.00 | 0.00 | 79 | 1016.6 |
| 20260502123503 | 63 | 120 | 3.0 | 7.0 | 0.00 | 0.00 | 0.00 | 86 | 1016.5 |
| 20260502123003 | 63 | 128 | 2.0 | 7.0 | 0.00 | 0.00 | 0.00 | 86 | 1016.7 |
| 20260502122503 | 63 | 159 | 1.0 | 7.0 | 0.00 | 0.00 | 0.00 | 85 | 1016.8 |
| 20260502122003 | 63 | 160 | 1.0 | 4.0 | 0.00 | 0.00 | 0.00 | 85 | 1016.9 |
| 20260502121503 | 63 | 138 | 1.0 | 5.0 | 0.00 | 0.00 | 0.00 | 84 | 1017.1 |
| 20260502121003 | 63 | 143 | 2.0 | 5.0 | 0.00 | 0.00 | 0.00 | 84 | 1017.3 |
| 20260502120503 | 64 | 351 | 1.0 | 4.0 | 0.00 | 0.00 | 0.00 | 84 | 1017.3 |
| 20260502115503 | 63 | 30 | 1.0 | 4.0 | 0.00 | 0.00 | 0.00 | 83 | 1017.5 |
| 20260502115003 | 64 | 29 | 1.0 | 5.0 | 0.00 | 0.00 | 0.00 | 83 | 1017.4 |
| 20260502114503 | 63 | 346 | 2.0 | 9.0 | 0.00 | 0.00 | 0.00 | 83 | 1017.5 |
| 20260502114003 | 64 | 330 | 2.0 | 9.0 | 0.00 | 0.00 | 0.00 | 83 | 1017.5 |
| 20260502113503 | 63 | 331 | 1.0 | 8.0 | 0.00 | 0.00 | 0.00 | 83 | 1017.6 |
| 20260502113003 | 63 | 316 | 2.0 | 9.0 | 0.00 | 0.00 | 0.00 | 84 | 1017.6 |
| 20260502112503 | 63 | 320 | 4.0 | 12.0 | 0.00 | 0.00 | 0.00 | 84 | 1017.6 |
| 20260502112003 | 63 | 327 | 6.0 | 13.0 | 0.00 | 0.00 | 0.00 | 84 | 1017.6 |
| 20260502111503 | 62 | 328 | 6.0 | 14.0 | 0.00 | 0.00 | 0.00 | 84 | 1017.5 |
| 20260502111017 | 62 | 323 | 6.0 | 14.0 | 0.00 | 0.00 | 0.00 | 84 | 1017.5 |
| 20260502110517 | 63 | 323 | 7.0 | 15.0 | 0.00 | 0.00 | 0.00 | 84 | 1017.6 |
| 20260502110017 | 63 | 323 | 10.0 | 16.0 | 0.00 | 0.00 | 0.00 | 83 | 1017.6 |
| 20260502105503 | 63 | 322 | 10.0 | 21.0 | 0.00 | 0.00 | 0.00 | 82 | 1017.6 |
| 20260502105003 | 64 | 324 | 11.0 | 21.0 | 0.00 | 0.00 | 0.00 | 80 | 1017.5 |
| 20260502104503 | 64 | 320 | 11.0 | 20.0 | 0.00 | 0.00 | 0.00 | 77 | 1017.6 |
| 20260502104003 | 66 | 312 | 9.0 | 18.0 | 0.00 | 0.00 | 0.00 | 72 | 1017.7 |
| 20260502103503 | 69 | 302 | 5.0 | 16.0 | 0.00 | 0.00 | 0.00 | 68 | 1017.9 |
| 20260502103003 | 69 | 243 | 5.0 | 12.0 | 0.00 | 0.00 | 0.00 | 62 | 1017.6 |
| 20260502102503 | 69 | 189 | 7.0 | 19.0 | 0.00 | 0.00 | 0.00 | 61 | 1017.6 |
| 20260502101503 | 69 | 196 | 7.0 | 18.0 | 0.00 | 0.00 | 0.00 | 62 | 1017.6 |
| 20260502101003 | 69 | 196 | 9.0 | 26.0 | 0.00 | 0.00 | 0.00 | 62 | 1017.5 |
| 20260502100503 | 69 | 190 | 11.0 | 26.0 | 0.00 | 0.00 | 0.00 | 62 | 1017.2 |
| 20260502091503 | 68 | 190 | 9.0 | 20.0 | 0.00 | 0.00 | 0.00 | 63 | 1016.7 |
| 20260502091003 | 68 | 205 | 8.0 | 15.0 | 0.00 | 0.00 | 0.00 | 63 | 1016.9 |
| 20260502090503 | 68 | 197 | 9.0 | 18.0 | 0.00 | 0.00 | 0.00 | 63 | 1017.0 |
| 20260502071503 | 67 | 183 | 11.0 | 25.0 | 0.00 | 0.00 | 0.00 | 63 | 1017.0 |
| 20260502071003 | 67 | 182 | 12.0 | 25.0 | 0.00 | 0.00 | 0.00 | 63 | 1017.0 |
| 20260502070503 | 67 | 183 | 13.0 | 24.0 | 0.00 | 0.00 | 0.00 | 63 | 1016.9 |
| 20260502070017 | 67 | 182 | 14.0 | 29.0 | 0.00 | 0.00 | 0.00 | 63 | 1017.1 |
| 20260502065503 | 67 | 186 | 12.0 | 29.0 | 0.00 | 0.00 | 0.00 | 63 | 1017.0 |
| 20260502065003 | 67 | 197 | 13.0 | 24.0 | 0.00 | 0.00 | 0.00 | 63 | 1017.1 |
| 20260502064504 | 68 | 197 | 14.0 | 28.0 | 0.00 | 0.00 | 0.00 | 62 | 1017.0 |
| 20260502064003 | 67 | 195 | 13.0 | 28.0 | 0.00 | 0.00 | 0.00 | 62 | 1016.9 |
| 20260502063503 | 68 | 195 | 13.0 | 23.0 | 0.00 | 0.00 | 0.00 | 62 | 1016.8 |
| 20260502063003 | 68 | 185 | 14.0 | 28.0 | 0.00 | 0.00 | 0.00 | 62 | 1016.6 |
| 20260502062503 | 68 | 177 | 15.0 | 31.0 | 0.00 | 0.00 | 0.00 | 62 | 1016.8 |
| 20260502062003 | 68 | 187 | 16.0 | 31.0 | 0.00 | 0.00 | 0.00 | 62 | 1016.6 |
| 20260502061503 | 68 | 194 | 15.0 | 29.0 | 0.00 | 0.00 | 0.00 | 62 | 1016.7 |
| 20260502061003 | 68 | 193 | 14.0 | 32.0 | 0.00 | 0.00 | 0.00 | 62 | 1016.5 |
| 20260502060503 | 68 | 184 | 14.0 | 32.0 | 0.00 | 0.00 | 0.00 | 62 | 1016.6 |
| 20260502060017 | 68 | 177 | 11.0 | 25.0 | 0.00 | 0.00 | 0.00 | 62 | 1016.5 |
| 20260502055517 | 67 | 183 | 9.0 | 21.0 | 0.00 | 0.00 | 0.00 | 62 | 1016.6 |
| 20260502055003 | 67 | 186 | 9.0 | 20.0 | 0.00 | 0.00 | 0.00 | 62 | 1016.6 |
| 20260502054503 | 67 | 178 | 9.0 | 21.0 | 0.00 | 0.00 | 0.00 | 62 | 1016.6 |
| 20260502054003 | 67 | 183 | 10.0 | 21.0 | 0.00 | 0.00 | 0.00 | 62 | 1016.6 |
| 20260502053503 | 67 | 195 | 12.0 | 30.0 | 0.00 | 0.00 | 0.00 | 61 | 1016.7 |
| 20260502053003 | 68 | 194 | 12.0 | 30.0 | 0.00 | 0.00 | 0.00 | 61 | 1016.7 |
| 20260502052503 | 68 | 199 | 10.0 | 23.0 | 0.00 | 0.00 | 0.00 | 61 | 1016.6 |
| 20260502052003 | 68 | 196 | 11.0 | 23.0 | 0.00 | 0.00 | 0.00 | 61 | 1016.5 |
| 20260502051503 | 68 | 190 | 13.0 | 27.0 | 0.00 | 0.00 | 0.00 | 61 | 1016.5 |
| 20260502051003 | 68 | 185 | 11.0 | 27.0 | 0.00 | 0.00 | 0.00 | 61 | 1016.3 |
| 20260502050517 | 68 | 182 | 9.0 | 19.0 | 0.00 | 0.00 | 0.00 | 61 | 1016.5 |
| 20260502050003 | 68 | 180 | 11.0 | 29.0 | 0.00 | 0.00 | 0.00 | 61 | 1016.4 |
| 20260502045503 | 68 | 182 | 12.0 | 29.0 | 0.00 | 0.00 | 0.00 | 60 | 1016.3 |
| 20260502045003 | 68 | 186 | 11.0 | 20.0 | 0.00 | 0.00 | 0.00 | 60 | 1016.4 |
| 20260502044504 | 68 | 182 | 12.0 | 29.0 | 0.00 | 0.00 | 0.00 | 60 | 1016.2 |
| 20260502044017 | 68 | 184 | 13.0 | 29.0 | 0.00 | 0.00 | 0.00 | 60 | 1016.5 |
| 20260502043503 | 68 | 193 | 12.0 | 24.0 | 0.00 | 0.00 | 0.00 | 59 | 1016.7 |
| 20260502043003 | 68 | 191 | 12.0 | 23.0 | 0.00 | 0.00 | 0.00 | 59 | 1016.4 |
| 20260502042503 | 68 | 179 | 12.0 | 23.0 | 0.00 | 0.00 | 0.00 | 59 | 1016.3 |
| 20260502042003 | 68 | 181 | 11.0 | 23.0 | 0.00 | 0.00 | 0.00 | 59 | 1016.4 |
| 20260502041503 | 68 | 185 | 10.0 | 23.0 | 0.00 | 0.00 | 0.00 | 59 | 1016.3 |
| 20260502041017 | 68 | 187 | 10.0 | 23.0 | 0.00 | 0.00 | 0.00 | 59 | 1016.0 |
| 20260502040503 | 68 | 190 | 10.0 | 21.0 | 0.00 | 0.00 | 0.00 | 59 | 1016.2 |